Time,TemperatureF,DewpointF,PressureIn,WindDirection,WindDirectionDegrees,WindSpeedMPH,WindSpeedGustMPH,Humidity,HourlyPrecipIn,Conditions,Clouds,dailyrainin,SoftwareType,DateUTC
2013-02-16 00:00:00,65.6,64.7,29.97,NW,312,0.0,0.0,97,0.00,,,0.00,Wunderground v.1.15,2013-02-16 05:00:00,
2013-02-16 00:01:00,65.6,64.7,29.97,NW,312,0.0,0.0,97,0.00,,,0.00,Wunderground v.1.15,2013-02-16 05:01:00,
2013-02-16 00:03:00,65.6,64.7,29.97,NW,311,0.0,0.0,97,0.00,,,0.00,Wunderground v.1.15,2013-02-16 05:03:00,
2013-02-16 00:07:00,65.7,64.8,29.97,NW,309,0.0,1.0,97,0.00,,,0.00,Wunderground v.1.15,2013-02-16 05:07:00,
2013-02-16 00:14:00,65.6,64.7,29.97,NW,309,0.0,0.0,97,0.00,,,0.00,Wunderground v.1.15,2013-02-16 05:14:00,
2013-02-16 00:20:00,65.6,64.7,29.97,NW,312,0.0,0.0,97,0.00,,,0.00,Wunderground v.1.15,2013-02-16 05:20:00,
2013-02-16 00:24:00,65.6,64.7,29.97,NW,312,0.0,0.0,97,0.00,,,0.00,Wunderground v.1.15,2013-02-16 05:24:00,
2013-02-16 00:29:00,65.4,64.5,29.96,NNW,347,0.0,0.0,97,0.00,,,0.00,Wunderground v.1.15,2013-02-16 05:29:00,
2013-02-16 00:35:00,65.5,64.6,29.97,WNW,283,1.0,1.0,97,0.00,,,0.00,Wunderground v.1.15,2013-02-16 05:35:00,
2013-02-16 00:41:00,65.5,64.6,29.97,NW,316,0.0,0.0,97,0.00,,,0.00,Wunderground v.1.15,2013-02-16 05:41:00,
2013-02-16 00:46:00,65.5,64.6,29.97,NNW,335,0.0,0.0,97,0.00,,,0.00,Wunderground v.1.15,2013-02-16 05:46:00,
2013-02-16 00:51:00,65.4,64.5,29.96,WNW,302,0.0,0.0,97,0.00,,,0.00,Wunderground v.1.15,2013-02-16 05:51:00,
2013-02-16 00:56:00,65.4,64.5,29.96,NNW,335,0.0,1.0,97,0.00,,,0.00,Wunderground v.1.15,2013-02-16 05:56:00,
2013-02-16 01:01:00,65.5,64.6,29.95,NW,322,1.0,1.0,97,0.00,,,0.00,Wunderground v.1.15,2013-02-16 06:01:00,
2013-02-16 01:07:00,65.5,64.6,29.95,NW,309,0.0,1.0,97,0.00,,,0.00,Wunderground v.1.15,2013-02-16 06:07:00,
2013-02-16 01:12:00,65.5,64.6,29.95,NW,315,0.0,0.0,97,0.00,,,0.00,Wunderground v.1.15,2013-02-16 06:12:00,
2013-02-16 01:17:00,65.6,64.7,29.95,NW,309,0.0,0.0,97,0.00,,,0.00,Wunderground v.1.15,2013-02-16 06:17:00,
2013-02-16 01:22:00,65.6,64.7,29.95,NW,322,1.0,1.0,97,0.00,,,0.00,Wunderground v.1.15,2013-02-16 06:22:00,
2013-02-16 01:27:00,65.6,64.7,29.95,NNW,329,0.0,1.0,97,0.00,,,0.00,Wunderground v.1.15,2013-02-16 06:27:00,
2013-02-16 01:32:00,65.5,64.6,29.95,NE,50,1.0,2.0,97,0.00,,,0.00,Wunderground v.1.15,2013-02-16 06:32:00,
2013-02-16 01:37:00,65.3,64.4,29.95,WNW,293,1.0,2.0,97,0.00,,,0.00,Wunderground v.1.15,2013-02-16 06:37:00,
2013-02-16 01:42:00,65.3,64.4,29.95,NW,316,2.0,4.0,97,0.00,,,0.00,Wunderground v.1.15,2013-02-16 06:42:00,
2013-02-16 01:47:00,65.2,64.3,29.96,NW,305,4.0,4.0,97,0.00,,,0.00,Wunderground v.1.15,2013-02-16 06:47:00,
2013-02-16 01:52:00,65.1,64.2,29.95,North,352,0.0,1.0,97,0.00,,,0.00,Wunderground v.1.15,2013-02-16 06:52:00,
2013-02-16 01:57:00,65.0,64.1,29.95,NNW,330,0.0,1.0,97,0.00,,,0.00,Wunderground v.1.15,2013-02-16 06:57:00,
2013-02-16 02:02:00,65.0,64.1,29.95,NNW,344,1.0,3.0,97,0.00,,,0.00,Wunderground v.1.15,2013-02-16 07:02:00,
2013-02-16 02:07:00,64.9,64.0,29.95,North,1,0.0,3.0,97,0.00,,,0.00,Wunderground v.1.15,2013-02-16 07:07:00,
2013-02-16 02:12:00,64.8,63.9,29.95,NE,34,0.0,2.0,97,0.00,,,0.00,Wunderground v.1.15,2013-02-16 07:12:00,
2013-02-16 02:17:00,64.7,63.8,29.94,NNE,19,0.0,2.0,97,0.00,,,0.00,Wunderground v.1.15,2013-02-16 07:17:00,
2013-02-16 02:22:00,64.6,63.7,29.94,NE,41,1.0,2.0,97,0.00,,,0.00,Wunderground v.1.15,2013-02-16 07:22:00,
2013-02-16 02:27:00,64.6,63.7,29.94,WNW,302,0.0,3.0,97,0.00,,,0.00,Wunderground v.1.15,2013-02-16 07:27:00,
2013-02-16 02:32:00,64.5,63.6,29.93,NE,41,0.0,1.0,97,0.00,,,0.00,Wunderground v.1.15,2013-02-16 07:32:00,
2013-02-16 02:37:00,64.5,63.6,29.93,NNE,17,0.0,1.0,97,0.00,,,0.00,Wunderground v.1.15,2013-02-16 07:37:00,
2013-02-16 02:42:00,64.5,63.6,29.92,NNE,15,0.0,1.0,97,0.00,,,0.00,Wunderground v.1.15,2013-02-16 07:42:00,
2013-02-16 02:47:00,64.5,63.6,29.93,NNW,345,0.0,1.0,97,0.00,,,0.00,Wunderground v.1.15,2013-02-16 07:47:00,
2013-02-16 02:52:00,64.5,63.6,29.93,North,360,0.0,1.0,97,0.00,,,0.00,Wunderground v.1.15,2013-02-16 07:52:00,
2013-02-16 02:57:00,64.3,63.4,29.92,North,359,0.0,3.0,97,0.00,,,0.00,Wunderground v.1.15,2013-02-16 07:57:00,
2013-02-16 03:02:00,64.2,63.3,29.92,North,352,0.0,2.0,97,0.00,,,0.00,Wunderground v.1.15,2013-02-16 08:02:00,
2013-02-16 03:07:00,64.1,63.2,29.92,NNE,20,0.0,2.0,97,0.00,,,0.00,Wunderground v.1.15,2013-02-16 08:07:00,
2013-02-16 03:12:00,64.0,63.1,29.93,NW,324,0.0,2.0,97,0.00,,,0.00,Wunderground v.1.15,2013-02-16 08:12:00,
2013-02-16 03:17:00,64.0,63.1,29.93,NNW,330,2.0,2.0,97,0.00,,,0.00,Wunderground v.1.15,2013-02-16 08:17:00,
2013-02-16 03:22:00,63.9,63.0,29.92,NNW,329,0.0,2.0,97,0.00,,,0.00,Wunderground v.1.15,2013-02-16 08:22:00,
2013-02-16 03:27:00,63.9,63.0,29.92,NNE,22,4.0,4.0,97,0.00,,,0.00,Wunderground v.1.15,2013-02-16 08:27:00,
2013-02-16 03:32:00,63.9,63.0,29.92,WNW,294,0.0,3.0,97,0.00,,,0.00,Wunderground v.1.15,2013-02-16 08:32:00,
2013-02-16 03:37:00,63.8,62.9,29.92,North,10,0.0,3.0,97,0.00,,,0.00,Wunderground v.1.15,2013-02-16 08:37:00,
2013-02-16 03:42:00,63.9,63.0,29.92,NNW,344,0.0,1.0,97,0.00,,,0.00,Wunderground v.1.15,2013-02-16 08:42:00,
2013-02-16 03:47:00,63.8,62.9,29.92,NNW,345,0.0,2.0,97,0.00,,,0.01,Wunderground v.1.15,2013-02-16 08:47:00,
2013-02-16 03:52:00,63.9,63.0,29.92,NW,324,0.0,1.0,97,0.00,,,0.01,Wunderground v.1.15,2013-02-16 08:52:00,
2013-02-16 03:57:00,63.8,62.9,29.92,NNE,12,0.0,1.0,97,0.00,,,0.01,Wunderground v.1.15,2013-02-16 08:57:00,
2013-02-16 04:02:00,63.8,62.9,29.91,NE,40,0.0,1.0,97,0.00,,,0.01,Wunderground v.1.15,2013-02-16 09:02:00,
2013-02-16 04:07:00,63.8,62.9,29.91,NE,40,0.0,1.0,97,0.00,,,0.01,Wunderground v.1.15,2013-02-16 09:07:00,
2013-02-16 04:12:00,63.8,62.9,29.91,NE,36,0.0,0.0,97,0.00,,,0.01,Wunderground v.1.15,2013-02-16 09:12:00,
2013-02-16 04:17:00,63.8,62.9,29.91,NE,37,0.0,0.0,97,0.00,,,0.01,Wunderground v.1.15,2013-02-16 09:17:00,
2013-02-16 04:22:00,63.7,62.8,29.91,NE,37,0.0,0.0,97,0.00,,,0.01,Wunderground v.1.15,2013-02-16 09:22:00,
2013-02-16 04:27:00,63.7,62.8,29.91,NE,35,0.0,0.0,97,0.00,,,0.01,Wunderground v.1.15,2013-02-16 09:27:00,
2013-02-16 04:32:00,63.7,62.8,29.91,North,356,0.0,1.0,97,0.00,,,0.01,Wunderground v.1.15,2013-02-16 09:32:00,
2013-02-16 04:37:00,63.8,62.9,29.91,NNW,343,1.0,1.0,97,0.00,,,0.01,Wunderground v.1.15,2013-02-16 09:37:00,
2013-02-16 04:42:00,63.8,62.9,29.91,NW,319,0.0,1.0,97,0.00,,,0.01,Wunderground v.1.15,2013-02-16 09:42:00,
2013-02-16 04:47:00,63.7,62.8,29.91,NE,49,2.0,2.0,97,0.00,,,0.01,Wunderground v.1.15,2013-02-16 09:47:00,
2013-02-16 04:52:00,63.7,62.8,29.91,North,1,0.0,1.0,97,0.00,,,0.01,Wunderground v.1.15,2013-02-16 09:52:00,
2013-02-16 04:57:00,63.7,62.8,29.91,NE,56,0.0,1.0,97,0.00,,,0.02,Wunderground v.1.15,2013-02-16 09:57:00,
2013-02-16 05:02:00,63.7,62.8,29.91,NE,56,0.0,1.0,97,0.00,,,0.02,Wunderground v.1.15,2013-02-16 10:02:00,
2013-02-16 05:07:00,63.7,62.8,29.91,NE,43,0.0,1.0,97,0.00,,,0.02,Wunderground v.1.15,2013-02-16 10:07:00,
2013-02-16 05:12:00,63.7,62.8,29.91,NE,41,0.0,1.0,97,0.00,,,0.02,Wunderground v.1.15,2013-02-16 10:12:00,
2013-02-16 05:17:00,63.7,62.8,29.91,NNE,22,0.0,1.0,97,0.00,,,0.02,Wunderground v.1.15,2013-02-16 10:17:00,
2013-02-16 05:22:00,63.7,62.8,29.91,North,1,0.0,0.0,97,0.00,,,0.02,Wunderground v.1.15,2013-02-16 10:22:00,
2013-02-16 05:27:00,63.7,62.8,29.91,North,11,0.0,0.0,97,0.00,,,0.02,Wunderground v.1.15,2013-02-16 10:27:00,
2013-02-16 05:32:00,63.8,62.9,29.92,NW,314,0.0,2.0,97,0.00,,,0.02,Wunderground v.1.15,2013-02-16 10:32:00,
2013-02-16 05:37:00,63.8,62.9,29.92,NW,316,1.0,2.0,97,0.00,,,0.02,Wunderground v.1.15,2013-02-16 10:37:00,
2013-02-16 05:42:00,63.8,62.9,29.92,NW,312,0.0,2.0,97,0.00,,,0.02,Wunderground v.1.15,2013-02-16 10:42:00,
2013-02-16 05:47:00,63.8,62.9,29.92,NNW,329,0.0,2.0,97,0.00,,,0.02,Wunderground v.1.15,2013-02-16 10:47:00,
2013-02-16 05:52:00,63.8,62.9,29.91,NNW,347,0.0,1.0,97,0.00,,,0.02,Wunderground v.1.15,2013-02-16 10:52:00,
2013-02-16 05:57:00,63.7,62.8,29.91,NE,42,0.0,2.0,97,0.00,,,0.03,Wunderground v.1.15,2013-02-16 10:57:00,
2013-02-16 06:02:00,63.6,62.7,29.91,NNE,22,0.0,1.0,97,0.00,,,0.03,Wunderground v.1.15,2013-02-16 11:02:00,
2013-02-16 06:07:00,63.6,62.7,29.91,NNE,32,0.0,1.0,97,0.00,,,0.03,Wunderground v.1.15,2013-02-16 11:07:00,
2013-02-16 06:12:00,63.6,62.7,29.91,NNW,343,0.0,0.0,97,0.00,,,0.03,Wunderground v.1.15,2013-02-16 11:12:00,
2013-02-16 06:17:00,63.6,62.7,29.91,NNE,13,0.0,1.0,97,0.00,,,0.03,Wunderground v.1.15,2013-02-16 11:17:00,
2013-02-16 06:22:00,63.5,62.6,29.92,NNE,13,0.0,0.0,97,0.00,,,0.03,Wunderground v.1.15,2013-02-16 11:22:00,
2013-02-16 06:27:00,63.5,62.6,29.92,NNW,341,0.0,1.0,97,0.00,,,0.03,Wunderground v.1.15,2013-02-16 11:27:00,
2013-02-16 06:32:00,63.6,62.7,29.92,North,9,0.0,1.0,97,0.00,,,0.03,Wunderground v.1.15,2013-02-16 11:32:00,
2013-02-16 06:37:00,63.6,62.7,29.92,North,6,0.0,2.0,97,0.00,,,0.03,Wunderground v.1.15,2013-02-16 11:37:00,
2013-02-16 06:42:00,63.7,62.8,29.93,NNW,336,0.0,1.0,97,0.00,,,0.03,Wunderground v.1.15,2013-02-16 11:42:00,
2013-02-16 06:47:00,63.7,62.8,29.93,North,355,0.0,2.0,97,0.00,,,0.03,Wunderground v.1.15,2013-02-16 11:47:00,
2013-02-16 06:52:00,63.8,62.9,29.93,NNW,348,0.0,1.0,97,0.00,,,0.03,Wunderground v.1.15,2013-02-16 11:52:00,
2013-02-16 06:57:00,63.8,62.9,29.93,WNW,294,2.0,2.0,97,0.00,,,0.03,Wunderground v.1.15,2013-02-16 11:57:00,
2013-02-16 07:03:00,63.8,62.9,29.93,NNW,346,0.0,0.0,97,0.00,,,0.03,Wunderground v.1.15,2013-02-16 12:03:00,
2013-02-16 07:08:00,63.9,63.0,29.93,NW,304,0.0,1.0,97,0.00,,,0.03,Wunderground v.1.15,2013-02-16 12:08:00,
2013-02-16 07:13:00,63.9,63.0,29.93,NNW,329,1.0,1.0,97,0.00,,,0.03,Wunderground v.1.15,2013-02-16 12:13:00,
2013-02-16 07:18:00,63.9,63.0,29.93,NW,309,1.0,3.0,97,0.00,,,0.03,Wunderground v.1.15,2013-02-16 12:18:00,
2013-02-16 07:23:00,64.0,63.1,29.93,NNW,342,0.0,2.0,97,0.00,,,0.03,Wunderground v.1.15,2013-02-16 12:23:00,
2013-02-16 07:28:00,64.0,63.1,29.93,North,357,0.0,2.0,97,0.00,,,0.03,Wunderground v.1.15,2013-02-16 12:28:00,
2013-02-16 07:33:00,64.0,63.1,29.93,ENE,74,0.0,1.0,97,0.00,,,0.03,Wunderground v.1.15,2013-02-16 12:33:00,
2013-02-16 07:38:00,64.0,63.1,29.93,NNW,338,1.0,3.0,97,0.00,,,0.03,Wunderground v.1.15,2013-02-16 12:38:00,
2013-02-16 07:43:00,64.0,63.1,29.93,NW,316,0.0,4.0,97,0.00,,,0.03,Wunderground v.1.15,2013-02-16 12:43:00,
2013-02-16 07:48:00,64.0,63.1,29.94,North,360,0.0,4.0,97,0.00,,,0.03,Wunderground v.1.15,2013-02-16 12:48:00,
2013-02-16 07:53:00,64.0,63.1,29.93,North,357,1.0,3.0,97,0.00,,,0.03,Wunderground v.1.15,2013-02-16 12:53:00,
2013-02-16 07:58:00,64.1,62.9,29.93,NE,35,0.0,3.0,96,0.00,,,0.03,Wunderground v.1.15,2013-02-16 12:58:00,
2013-02-16 08:04:00,64.1,63.2,29.94,North,359,1.0,1.0,97,0.00,,,0.03,Wunderground v.1.15,2013-02-16 13:04:00,
2013-02-16 08:09:00,64.2,63.0,29.94,NNW,329,0.0,1.0,96,0.00,,,0.03,Wunderground v.1.15,2013-02-16 13:09:00,
2013-02-16 08:14:00,64.2,63.0,29.94,North,353,0.0,4.0,96,0.00,,,0.03,Wunderground v.1.15,2013-02-16 13:14:00,
2013-02-16 08:19:00,64.2,63.0,29.94,North,9,0.0,4.0,96,0.00,,,0.03,Wunderground v.1.15,2013-02-16 13:19:00,
2013-02-16 08:24:00,64.3,63.1,29.94,North,353,0.0,3.0,96,0.00,,,0.03,Wunderground v.1.15,2013-02-16 13:24:00,
2013-02-16 08:29:00,64.3,63.1,29.94,NNW,330,0.0,3.0,96,0.00,,,0.03,Wunderground v.1.15,2013-02-16 13:29:00,
2013-02-16 08:34:00,64.4,62.9,29.94,NW,321,0.0,3.0,95,0.00,,,0.03,Wunderground v.1.15,2013-02-16 13:34:00,
2013-02-16 08:39:00,64.5,63.3,29.94,NW,326,0.0,3.0,96,0.00,,,0.03,Wunderground v.1.15,2013-02-16 13:39:00,
2013-02-16 08:44:00,64.6,63.1,29.95,West,273,0.0,4.0,95,0.00,,,0.03,Wunderground v.1.15,2013-02-16 13:44:00,
2013-02-16 08:49:00,64.6,63.1,29.94,NW,319,0.0,5.0,95,0.00,,,0.03,Wunderground v.1.15,2013-02-16 13:49:00,
2013-02-16 08:54:00,64.8,63.3,29.95,NW,319,0.0,1.0,95,0.00,,,0.03,Wunderground v.1.15,2013-02-16 13:54:00,
2013-02-16 08:59:00,64.9,63.4,29.95,NW,311,0.0,3.0,95,0.00,,,0.03,Wunderground v.1.15,2013-02-16 13:59:00,
2013-02-16 09:04:00,65.0,63.2,29.95,North,6,3.0,3.0,94,0.00,,,0.03,Wunderground v.1.15,2013-02-16 14:04:00,
2013-02-16 09:09:00,65.1,63.3,29.95,NW,316,0.0,4.0,94,0.00,,,0.03,Wunderground v.1.15,2013-02-16 14:09:00,
2013-02-16 09:14:00,65.0,62.9,29.95,NW,322,0.0,4.0,93,0.00,,,0.03,Wunderground v.1.15,2013-02-16 14:14:00,
2013-02-16 09:19:00,65.1,62.7,29.95,WNW,302,0.0,4.0,92,0.00,,,0.03,Wunderground v.1.15,2013-02-16 14:19:00,
2013-02-16 09:25:00,65.2,62.8,29.95,ENE,78,0.0,4.0,92,0.00,,,0.03,Wunderground v.1.15,2013-02-16 14:25:00,
2013-02-16 09:30:00,65.3,62.9,29.96,South,172,0.0,0.0,92,0.00,,,0.03,Wunderground v.1.15,2013-02-16 14:30:00,
2013-02-16 09:35:00,65.4,62.7,29.96,WNW,292,0.0,3.0,91,0.00,,,0.03,Wunderground v.1.15,2013-02-16 14:35:00,
2013-02-16 09:40:00,65.6,62.9,29.96,North,4,0.0,1.0,91,0.00,,,0.03,Wunderground v.1.15,2013-02-16 14:40:00,
2013-02-16 09:45:00,66.0,63.0,29.96,NE,40,0.0,3.0,90,0.00,,,0.03,Wunderground v.1.15,2013-02-16 14:45:00,
2013-02-16 09:50:00,66.5,63.5,29.97,NNW,340,0.0,2.0,90,0.00,,,0.03,Wunderground v.1.15,2013-02-16 14:50:00,
2013-02-16 09:55:00,67.4,64.0,29.97,North,8,2.0,5.0,89,0.00,,,0.03,Wunderground v.1.15,2013-02-16 14:55:00,
2013-02-16 10:00:00,67.7,64.0,29.97,WNW,295,4.0,5.0,88,0.00,,,0.03,Wunderground v.1.15,2013-02-16 15:00:00,
2013-02-16 10:05:00,67.8,63.8,29.96,West,276,3.0,5.0,87,0.00,,,0.03,Wunderground v.1.15,2013-02-16 15:05:00,
2013-02-16 10:10:00,68.0,63.7,29.97,WSW,257,0.0,2.0,86,0.00,,,0.03,Wunderground v.1.15,2013-02-16 15:10:00,
2013-02-16 10:15:00,68.2,63.5,29.96,WNW,283,3.0,5.0,85,0.00,,,0.03,Wunderground v.1.15,2013-02-16 15:15:00,
2013-02-16 10:20:00,68.3,63.6,29.97,West,276,1.0,3.0,85,0.00,,,0.03,Wunderground v.1.15,2013-02-16 15:20:00,
2013-02-16 10:25:00,68.4,63.4,29.96,WNW,298,2.0,7.0,84,0.00,,,0.03,Wunderground v.1.15,2013-02-16 15:25:00,
2013-02-16 10:30:00,68.4,63.4,29.96,North,357,1.0,3.0,84,0.00,,,0.03,Wunderground v.1.15,2013-02-16 15:30:00,
2013-02-16 10:35:00,68.9,64.2,29.96,North,9,2.0,3.0,85,0.00,,,0.03,Wunderground v.1.15,2013-02-16 15:35:00,
2013-02-16 10:40:00,68.8,63.8,29.96,West,264,4.0,6.0,84,0.00,,,0.03,Wunderground v.1.15,2013-02-16 15:40:00,
2013-02-16 10:45:00,68.6,63.6,29.96,West,278,2.0,6.0,84,0.00,,,0.03,Wunderground v.1.15,2013-02-16 15:45:00,
2013-02-16 10:50:00,68.5,63.8,29.97,West,273,1.0,5.0,85,0.00,,,0.03,Wunderground v.1.15,2013-02-16 15:50:00,
2013-02-16 10:55:00,69.0,64.0,29.97,West,264,2.0,5.0,84,0.00,,,0.03,Wunderground v.1.15,2013-02-16 15:55:00,
2013-02-16 11:00:00,68.8,63.4,29.97,West,280,0.0,3.0,83,0.00,,,0.03,Wunderground v.1.15,2013-02-16 16:00:00,
2013-02-16 11:05:00,69.1,63.7,29.97,WNW,294,5.0,5.0,83,0.00,,,0.03,Wunderground v.1.15,2013-02-16 16:05:00,
2013-02-16 11:10:00,69.5,63.8,29.97,WSW,252,5.0,5.0,82,0.00,,,0.03,Wunderground v.1.15,2013-02-16 16:10:00,
2013-02-16 11:15:00,69.6,63.2,29.97,WNW,286,2.0,11.0,80,0.00,,,0.03,Wunderground v.1.15,2013-02-16 16:15:00,
2013-02-16 11:20:00,69.8,64.1,29.96,West,263,3.0,4.0,82,0.00,,,0.03,Wunderground v.1.15,2013-02-16 16:20:00,
2013-02-16 11:25:00,70.4,63.6,29.96,NNW,329,6.0,8.0,79,0.00,,,0.03,Wunderground v.1.15,2013-02-16 16:25:00,
2013-02-16 11:30:00,70.4,63.2,29.96,NNW,345,0.0,9.0,78,0.00,,,0.03,Wunderground v.1.15,2013-02-16 16:30:00,
2013-02-16 11:35:00,70.9,63.7,29.96,West,262,2.0,9.0,78,0.00,,,0.03,Wunderground v.1.15,2013-02-16 16:35:00,
2013-02-16 11:40:00,71.3,63.3,29.96,North,349,9.0,9.0,76,0.00,,,0.03,Wunderground v.1.15,2013-02-16 16:40:00,
2013-02-16 11:45:00,71.4,63.4,29.96,WNW,288,6.0,9.0,76,0.00,,,0.03,Wunderground v.1.15,2013-02-16 16:45:00,
2013-02-16 11:51:00,71.3,62.6,29.96,West,274,6.0,9.0,74,0.00,,,0.03,Wunderground v.1.15,2013-02-16 16:51:00,
2013-02-16 11:56:00,71.2,62.9,29.96,WSW,250,2.0,12.0,75,0.00,,,0.03,Wunderground v.1.15,2013-02-16 16:56:00,
2013-02-16 12:01:00,71.4,62.3,29.95,NW,307,6.0,10.0,73,0.00,,,0.03,Wunderground v.1.15,2013-02-16 17:01:00,
2013-02-16 12:06:00,71.7,63.4,29.95,WSW,257,11.0,13.0,75,0.00,,,0.03,Wunderground v.1.15,2013-02-16 17:06:00,
2013-02-16 12:11:00,71.9,63.5,29.95,WNW,301,3.0,6.0,75,0.00,,,0.03,Wunderground v.1.15,2013-02-16 17:11:00,
2013-02-16 12:16:00,71.9,62.8,29.95,WSW,253,5.0,11.0,73,0.00,,,0.03,Wunderground v.1.15,2013-02-16 17:16:00,
2013-02-16 12:21:00,72.0,60.9,29.95,West,271,4.0,8.0,68,0.00,,,0.03,Wunderground v.1.15,2013-02-16 17:21:00,
2013-02-16 12:26:00,72.6,61.8,29.95,West,272,5.0,12.0,69,0.00,,,0.03,Wunderground v.1.15,2013-02-16 17:26:00,
2013-02-16 12:31:00,72.2,61.0,29.95,NW,324,4.0,9.0,68,0.00,,,0.03,Wunderground v.1.15,2013-02-16 17:31:00,
2013-02-16 12:36:00,72.5,62.2,29.94,West,267,3.0,15.0,70,0.00,,,0.03,Wunderground v.1.15,2013-02-16 17:36:00,
2013-02-16 12:41:00,72.7,61.9,29.94,West,277,8.0,11.0,69,0.00,,,0.03,Wunderground v.1.15,2013-02-16 17:41:00,
2013-02-16 12:46:00,72.6,61.0,29.94,West,273,7.0,11.0,67,0.00,,,0.03,Wunderground v.1.15,2013-02-16 17:46:00,
2013-02-16 12:51:00,72.8,59.9,29.94,NW,323,3.0,10.0,64,0.00,,,0.03,Wunderground v.1.15,2013-02-16 17:51:00,
2013-02-16 12:56:00,73.0,61.4,29.94,WNW,290,6.0,10.0,67,0.00,,,0.03,Wunderground v.1.15,2013-02-16 17:56:00,
2013-02-16 13:01:00,72.8,61.2,29.94,WNW,288,2.0,7.0,67,0.00,,,0.03,Wunderground v.1.15,2013-02-16 18:01:00,
2013-02-16 13:06:00,72.6,59.3,29.94,WNW,285,8.0,8.0,63,0.00,,,0.03,Wunderground v.1.15,2013-02-16 18:06:00,
2013-02-16 13:11:00,72.0,59.2,29.93,WSW,256,10.0,12.0,64,0.00,,,0.03,Wunderground v.1.15,2013-02-16 18:11:00,
2013-02-16 13:16:00,71.9,59.9,29.93,West,271,3.0,12.0,66,0.00,,,0.03,Wunderground v.1.15,2013-02-16 18:16:00,
2013-02-16 13:21:00,71.9,59.5,29.92,West,263,3.0,6.0,65,0.00,,,0.03,Wunderground v.1.15,2013-02-16 18:21:00,
2013-02-16 13:26:00,72.1,58.4,29.92,NW,322,6.0,9.0,62,0.00,,,0.03,Wunderground v.1.15,2013-02-16 18:26:00,
2013-02-16 13:31:00,72.5,57.8,29.92,WNW,290,5.0,11.0,60,0.00,,,0.03,Wunderground v.1.15,2013-02-16 18:31:00,
2013-02-16 13:36:00,72.9,57.3,29.92,NNW,331,5.0,11.0,58,0.00,,,0.03,Wunderground v.1.15,2013-02-16 18:36:00,
2013-02-16 13:41:00,73.2,57.1,29.92,WNW,301,7.0,8.0,57,0.00,,,0.03,Wunderground v.1.15,2013-02-16 18:41:00,
2013-02-16 13:46:00,73.5,55.8,29.91,West,262,6.0,11.0,54,0.00,,,0.03,Wunderground v.1.15,2013-02-16 18:46:00,
2013-02-16 13:51:00,73.8,55.1,29.91,West,260,8.0,12.0,52,0.00,,,0.03,Wunderground v.1.15,2013-02-16 18:51:00,
2013-02-16 13:56:00,73.9,54.6,29.91,West,267,8.0,12.0,51,0.00,,,0.03,Wunderground v.1.15,2013-02-16 18:56:00,
2013-02-16 14:01:00,73.6,53.8,29.91,NW,307,8.0,12.0,50,0.00,,,0.03,Wunderground v.1.15,2013-02-16 19:01:00,
2013-02-16 14:06:00,73.9,53.5,29.91,WSW,252,7.0,13.0,49,0.00,,,0.03,Wunderground v.1.15,2013-02-16 19:06:00,
2013-02-16 14:11:00,74.1,52.6,29.91,West,271,7.0,11.0,47,0.00,,,0.03,Wunderground v.1.15,2013-02-16 19:11:00,
2013-02-16 14:16:00,74.0,50.7,29.91,NNW,328,9.0,18.0,44,0.00,,,0.03,Wunderground v.1.15,2013-02-16 19:16:00,
2013-02-16 14:22:00,74.2,52.1,29.91,WSW,242,15.0,15.0,46,0.00,,,0.03,Wunderground v.1.15,2013-02-16 19:22:00,
2013-02-16 14:27:00,74.2,51.5,29.91,WNW,282,4.0,16.0,45,0.00,,,0.03,Wunderground v.1.15,2013-02-16 19:27:00,
2013-02-16 14:32:00,74.2,52.1,29.91,WNW,288,4.0,15.0,46,0.00,,,0.03,Wunderground v.1.15,2013-02-16 19:32:00,
2013-02-16 14:37:00,73.8,51.1,29.91,West,270,6.0,17.0,45,0.00,,,0.03,Wunderground v.1.15,2013-02-16 19:37:00,
2013-02-16 14:42:00,73.4,51.9,29.91,WNW,285,7.0,14.0,47,0.00,,,0.03,Wunderground v.1.15,2013-02-16 19:42:00,
2013-02-16 14:47:00,73.4,53.1,29.92,WNW,283,5.0,14.0,49,0.00,,,0.03,Wunderground v.1.15,2013-02-16 19:47:00,
2013-02-16 14:52:00,73.4,51.9,29.92,WSW,255,9.0,12.0,47,0.00,,,0.03,Wunderground v.1.15,2013-02-16 19:52:00,
2013-02-16 14:57:00,73.3,52.4,29.92,West,264,9.0,16.0,48,0.00,,,0.03,Wunderground v.1.15,2013-02-16 19:57:00,
2013-02-16 15:02:00,73.1,51.7,29.92,WNW,295,5.0,9.0,47,0.00,,,0.03,Wunderground v.1.15,2013-02-16 20:02:00,
2013-02-16 15:07:00,73.0,51.6,29.92,NW,326,4.0,11.0,47,0.00,,,0.03,Wunderground v.1.15,2013-02-16 20:07:00,
2013-02-16 15:12:00,72.4,49.3,29.92,West,264,17.0,17.0,44,0.00,,,0.03,Wunderground v.1.15,2013-02-16 20:12:00,
2013-02-16 15:17:00,72.2,49.7,29.92,West,281,4.0,17.0,45,0.00,,,0.03,Wunderground v.1.15,2013-02-16 20:17:00,
2013-02-16 15:22:00,72.1,47.1,29.92,WNW,291,9.0,16.0,41,0.00,,,0.03,Wunderground v.1.15,2013-02-16 20:22:00,
2013-02-16 15:27:00,72.3,48.5,29.92,West,274,7.0,16.0,43,0.00,,,0.03,Wunderground v.1.15,2013-02-16 20:27:00,
2013-02-16 15:32:00,72.2,49.1,29.92,WSW,254,6.0,10.0,44,0.00,,,0.03,Wunderground v.1.15,2013-02-16 20:32:00,
2013-02-16 15:37:00,72.8,50.8,29.92,WNW,302,2.0,12.0,46,0.00,,,0.03,Wunderground v.1.15,2013-02-16 20:37:00,
2013-02-16 15:42:00,72.9,49.7,29.93,West,266,16.0,18.0,44,0.00,,,0.03,Wunderground v.1.15,2013-02-16 20:42:00,
2013-02-16 15:47:00,72.5,49.9,29.92,West,278,4.0,18.0,45,0.00,,,0.03,Wunderground v.1.15,2013-02-16 20:47:00,
2013-02-16 15:52:00,72.5,50.5,29.93,WSW,253,6.0,16.0,46,0.00,,,0.03,Wunderground v.1.15,2013-02-16 20:52:00,
2013-02-16 15:57:00,72.5,49.3,29.93,NW,322,10.0,17.0,44,0.00,,,0.03,Wunderground v.1.15,2013-02-16 20:57:00,
2013-02-16 16:02:00,72.2,50.3,29.93,West,272,11.0,17.0,46,0.00,,,0.03,Wunderground v.1.15,2013-02-16 21:02:00,
2013-02-16 16:07:00,72.1,50.2,29.93,WNW,298,6.0,17.0,46,0.00,,,0.03,Wunderground v.1.15,2013-02-16 21:07:00,
2013-02-16 16:12:00,71.9,49.4,29.93,NNW,335,4.0,12.0,45,0.00,,,0.03,Wunderground v.1.15,2013-02-16 21:12:00,
2013-02-16 16:17:00,71.8,48.7,29.94,NNW,334,10.0,16.0,44,0.00,,,0.03,Wunderground v.1.15,2013-02-16 21:17:00,
2013-02-16 16:22:00,71.7,49.8,29.94,WNW,288,5.0,10.0,46,0.00,,,0.03,Wunderground v.1.15,2013-02-16 21:22:00,
2013-02-16 16:27:00,71.7,50.4,29.94,West,280,0.0,13.0,47,0.00,,,0.03,Wunderground v.1.15,2013-02-16 21:27:00,
2013-02-16 16:32:00,71.8,51.0,29.94,WNW,295,4.0,8.0,48,0.00,,,0.03,Wunderground v.1.15,2013-02-16 21:32:00,
2013-02-16 16:38:00,71.7,51.5,29.95,WSW,255,5.0,16.0,49,0.00,,,0.03,Wunderground v.1.15,2013-02-16 21:38:00,
2013-02-16 16:43:00,71.6,52.0,29.94,West,278,7.0,10.0,50,0.00,,,0.03,Wunderground v.1.15,2013-02-16 21:43:00,
2013-02-16 16:47:00,71.1,52.0,29.95,WNW,300,3.0,12.0,51,0.00,,,0.03,Wunderground v.1.15,2013-02-16 21:47:00,
2013-02-16 16:52:00,71.0,52.0,29.95,West,264,6.0,13.0,51,0.00,,,0.03,Wunderground v.1.15,2013-02-16 21:52:00,
2013-02-16 16:58:00,70.7,52.2,29.95,NW,314,3.0,13.0,52,0.00,,,0.03,Wunderground v.1.15,2013-02-16 21:58:00,
2013-02-16 17:03:00,70.2,51.7,29.95,West,278,6.0,14.0,52,0.00,,,0.03,Wunderground v.1.15,2013-02-16 22:03:00,
2013-02-16 17:08:00,70.1,52.7,29.95,WNW,293,5.0,14.0,54,0.00,,,0.03,Wunderground v.1.15,2013-02-16 22:08:00,
2013-02-16 17:13:00,70.0,53.6,29.95,WNW,288,5.0,8.0,56,0.00,,,0.03,Wunderground v.1.15,2013-02-16 22:13:00,
2013-02-16 17:18:00,69.8,52.9,29.96,WNW,285,3.0,8.0,55,0.00,,,0.03,Wunderground v.1.15,2013-02-16 22:18:00,
2013-02-16 17:23:00,69.8,51.9,29.96,NNW,342,5.0,8.0,53,0.00,,,0.03,Wunderground v.1.15,2013-02-16 22:23:00,
2013-02-16 17:28:00,69.3,51.4,29.96,NW,307,8.0,11.0,53,0.00,,,0.03,Wunderground v.1.15,2013-02-16 22:28:00,
2013-02-16 17:33:00,69.0,51.2,29.96,WSW,249,4.0,11.0,53,0.00,,,0.03,Wunderground v.1.15,2013-02-16 22:33:00,
2013-02-16 17:39:00,68.8,51.5,29.97,North,1,5.0,11.0,54,0.00,,,0.03,Wunderground v.1.15,2013-02-16 22:39:00,
2013-02-16 17:44:00,68.6,50.8,29.97,NNW,347,2.0,13.0,53,0.00,,,0.03,Wunderground v.1.15,2013-02-16 22:44:00,
2013-02-16 17:49:00,68.3,51.0,29.97,WNW,285,8.0,13.0,54,0.00,,,0.03,Wunderground v.1.15,2013-02-16 22:49:00,
2013-02-16 17:54:00,68.0,51.2,29.98,NNW,335,7.0,10.0,55,0.00,,,0.03,Wunderground v.1.15,2013-02-16 22:54:00,
2013-02-16 17:59:00,67.8,51.5,29.98,NNW,327,3.0,12.0,56,0.00,,,0.03,Wunderground v.1.15,2013-02-16 22:59:00,
2013-02-16 18:04:00,67.6,51.8,29.98,NNW,327,3.0,15.0,57,0.00,,,0.03,Wunderground v.1.15,2013-02-16 23:04:00,
2013-02-16 18:09:00,67.4,51.6,29.98,West,262,1.0,15.0,57,0.00,,,0.03,Wunderground v.1.15,2013-02-16 23:09:00,
2013-02-16 18:14:00,67.2,51.9,29.98,WNW,288,3.0,8.0,58,0.00,,,0.03,Wunderground v.1.15,2013-02-16 23:14:00,
2013-02-16 18:19:00,67.0,53.1,29.98,WNW,285,5.0,9.0,61,0.00,,,0.03,Wunderground v.1.15,2013-02-16 23:19:00,
2013-02-16 18:24:00,66.8,52.5,29.98,West,278,3.0,8.0,60,0.00,,,0.03,Wunderground v.1.15,2013-02-16 23:24:00,
2013-02-16 18:29:00,66.7,51.9,29.98,West,269,3.0,10.0,59,0.00,,,0.03,Wunderground v.1.15,2013-02-16 23:29:00,
2013-02-16 18:34:00,66.6,52.3,29.98,WNW,286,5.0,10.0,60,0.00,,,0.03,Wunderground v.1.15,2013-02-16 23:34:00,
2013-02-16 18:39:00,66.5,52.6,29.98,WNW,292,5.0,12.0,61,0.00,,,0.03,Wunderground v.1.15,2013-02-16 23:39:00,
2013-02-16 18:44:00,66.3,52.9,29.98,West,269,3.0,10.0,62,0.00,,,0.03,Wunderground v.1.15,2013-02-16 23:44:00,
2013-02-16 18:49:00,66.2,52.8,29.99,WNW,288,5.0,10.0,62,0.00,,,0.03,Wunderground v.1.15,2013-02-16 23:49:00,
2013-02-16 18:54:00,66.0,53.5,29.99,WNW,298,4.0,16.0,64,0.00,,,0.03,Wunderground v.1.15,2013-02-16 23:54:00,
2013-02-16 18:59:00,65.8,53.3,29.99,WNW,298,3.0,16.0,64,0.00,,,0.03,Wunderground v.1.15,2013-02-16 23:59:00,
2013-02-16 19:04:00,65.7,53.6,29.99,West,269,6.0,12.0,65,0.00,,,0.03,Wunderground v.1.15,2013-02-17 00:04:00,
2013-02-16 19:09:00,65.5,53.8,29.99,WNW,295,4.0,12.0,66,0.00,,,0.03,Wunderground v.1.15,2013-02-17 00:09:00,
2013-02-16 19:51:00,63.6,52.8,30.02,West,277,4.0,12.0,68,0.00,,,0.03,Wunderground v.1.15,2013-02-17 00:51:00,
2013-02-16 19:56:00,63.4,52.7,30.02,NW,308,4.0,12.0,68,0.00,,,0.03,Wunderground v.1.15,2013-02-17 00:56:00,
2013-02-16 20:01:00,63.2,52.9,30.03,NW,311,0.0,7.0,69,0.00,,,0.03,Wunderground v.1.15,2013-02-17 01:01:00,
2013-02-16 20:06:00,63.0,52.3,30.03,NW,319,6.0,11.0,68,0.00,,,0.03,Wunderground v.1.15,2013-02-17 01:06:00,
2013-02-16 20:11:00,62.7,52.0,30.03,SW,221,0.0,8.0,68,0.00,,,0.03,Wunderground v.1.15,2013-02-17 01:11:00,
2013-02-16 20:16:00,62.5,51.8,30.04,NW,309,6.0,15.0,68,0.00,,,0.03,Wunderground v.1.15,2013-02-17 01:16:00,
2013-02-16 20:21:00,62.4,52.1,30.04,North,359,3.0,11.0,69,0.00,,,0.03,Wunderground v.1.15,2013-02-17 01:21:00,
2013-02-16 20:26:00,62.1,52.6,30.04,West,262,1.0,11.0,71,0.00,,,0.03,Wunderground v.1.15,2013-02-17 01:26:00,
2013-02-16 20:31:00,61.9,52.4,30.04,NNW,345,4.0,7.0,71,0.00,,,0.03,Wunderground v.1.15,2013-02-17 01:31:00,
2013-02-16 20:36:00,61.7,51.8,30.05,West,277,3.0,10.0,70,0.00,,,0.03,Wunderground v.1.15,2013-02-17 01:36:00,
2013-02-16 20:41:00,61.7,51.4,30.05,ENE,78,4.0,10.0,69,0.00,,,0.03,Wunderground v.1.15,2013-02-17 01:41:00,
2013-02-16 20:46:00,61.5,52.0,30.05,North,4,3.0,10.0,71,0.00,,,0.03,Wunderground v.1.15,2013-02-17 01:46:00,
2013-02-16 20:51:00,61.3,51.4,30.06,NNW,336,2.0,8.0,70,0.00,,,0.03,Wunderground v.1.15,2013-02-17 01:51:00,
2013-02-16 20:56:00,61.1,51.2,30.06,West,281,1.0,13.0,70,0.00,,,0.03,Wunderground v.1.15,2013-02-17 01:56:00,
2013-02-16 21:01:00,61.0,51.5,30.06,WNW,302,12.0,12.0,71,0.00,,,0.03,Wunderground v.1.15,2013-02-17 02:01:00,
2013-02-16 21:06:00,60.7,50.9,30.07,West,281,4.0,13.0,70,0.00,,,0.03,Wunderground v.1.15,2013-02-17 02:06:00,
2013-02-16 21:11:00,60.5,50.7,30.07,East,80,4.0,8.0,70,0.00,,,0.03,Wunderground v.1.15,2013-02-17 02:11:00,
2013-02-16 21:16:00,60.2,50.4,30.07,NW,307,0.0,9.0,70,0.00,,,0.03,Wunderground v.1.15,2013-02-17 02:16:00,
2013-02-16 21:21:00,60.0,50.2,30.07,West,274,4.0,14.0,70,0.00,,,0.03,Wunderground v.1.15,2013-02-17 02:21:00,
2013-02-16 21:26:00,59.7,48.7,30.08,NW,322,8.0,14.0,67,0.00,,,0.03,Wunderground v.1.15,2013-02-17 02:26:00,
2013-02-16 21:31:00,59.5,47.7,30.08,WNW,293,4.0,9.0,65,0.00,,,0.03,Wunderground v.1.15,2013-02-17 02:31:00,
2013-02-16 21:36:00,59.3,47.5,30.08,NW,326,10.0,12.0,65,0.00,,,0.03,Wunderground v.1.15,2013-02-17 02:36:00,
2013-02-16 21:41:00,59.1,47.3,30.08,North,6,0.0,5.0,65,0.00,,,0.03,Wunderground v.1.15,2013-02-17 02:41:00,
2013-02-16 21:46:00,58.9,47.6,30.08,West,269,2.0,7.0,66,0.00,,,0.03,Wunderground v.1.15,2013-02-17 02:46:00,
2013-02-16 21:51:00,58.6,48.1,30.09,WNW,300,2.0,9.0,68,0.00,,,0.03,Wunderground v.1.15,2013-02-17 02:51:00,
2013-02-16 21:56:00,58.3,48.2,30.09,NE,37,2.0,9.0,69,0.00,,,0.03,Wunderground v.1.15,2013-02-17 02:56:00,
2013-02-16 22:01:00,58.1,48.7,30.09,SW,228,0.0,10.0,71,0.00,,,0.03,Wunderground v.1.15,2013-02-17 03:01:00,
2013-02-16 22:06:00,58.0,49.0,30.09,WNW,302,1.0,10.0,72,0.00,,,0.03,Wunderground v.1.15,2013-02-17 03:06:00,
2013-02-16 22:11:00,57.7,48.4,30.09,WNW,291,6.0,8.0,71,0.00,,,0.03,Wunderground v.1.15,2013-02-17 03:11:00,
2013-02-16 22:16:00,57.6,48.3,30.09,West,276,1.0,9.0,71,0.00,,,0.03,Wunderground v.1.15,2013-02-17 03:16:00,
2013-02-16 22:21:00,57.4,48.1,30.09,ENE,64,3.0,9.0,71,0.00,,,0.03,Wunderground v.1.15,2013-02-17 03:21:00,
2013-02-16 22:26:00,57.2,48.3,30.09,North,349,3.0,9.0,72,0.00,,,0.03,Wunderground v.1.15,2013-02-17 03:26:00,
2013-02-16 22:31:00,57.0,48.1,30.09,West,278,4.0,8.0,72,0.00,,,0.03,Wunderground v.1.15,2013-02-17 03:31:00,
2013-02-16 22:36:00,56.9,47.6,30.09,WNW,283,2.0,12.0,71,0.00,,,0.03,Wunderground v.1.15,2013-02-17 03:36:00,
2013-02-16 22:41:00,56.7,47.8,30.10,WNW,295,2.0,8.0,72,0.00,,,0.03,Wunderground v.1.15,2013-02-17 03:41:00,
2013-02-16 22:46:00,56.6,47.7,30.10,NE,42,1.0,13.0,72,0.00,,,0.03,Wunderground v.1.15,2013-02-17 03:46:00,
2013-02-16 22:51:00,56.5,48.3,30.10,WSW,246,4.0,7.0,74,0.00,,,0.03,Wunderground v.1.15,2013-02-17 03:51:00,
2013-02-16 22:56:00,56.3,48.1,30.10,WNW,291,2.0,9.0,74,0.00,,,0.03,Wunderground v.1.15,2013-02-17 03:56:00,
2013-02-16 23:01:00,56.1,48.3,30.10,SW,236,4.0,6.0,75,0.00,,,0.03,Wunderground v.1.15,2013-02-17 04:01:00,
2013-02-16 23:06:00,56.1,48.3,30.10,WNW,288,0.0,6.0,75,0.00,,,0.03,Wunderground v.1.15,2013-02-17 04:06:00,
2013-02-16 23:11:00,55.9,47.7,30.10,WNW,301,2.0,7.0,74,0.00,,,0.03,Wunderground v.1.15,2013-02-17 04:11:00,
2013-02-16 23:16:00,55.9,47.7,30.10,NW,318,3.0,7.0,74,0.00,,,0.03,Wunderground v.1.15,2013-02-17 04:16:00,
2013-02-16 23:21:00,55.7,47.5,30.11,WNW,302,6.0,6.0,74,0.00,,,0.03,Wunderground v.1.15,2013-02-17 04:21:00,
2013-02-16 23:26:00,55.6,47.4,30.11,North,5,0.0,9.0,74,0.00,,,0.03,Wunderground v.1.15,2013-02-17 04:26:00,
2013-02-16 23:31:00,55.5,47.3,30.11,NNW,338,1.0,5.0,74,0.00,,,0.03,Wunderground v.1.15,2013-02-17 04:31:00,
2013-02-16 23:36:00,55.5,47.3,30.11,East,89,0.0,10.0,74,0.00,,,0.03,Wunderground v.1.15,2013-02-17 04:36:00,
2013-02-16 23:41:00,55.4,47.2,30.11,WNW,288,2.0,7.0,74,0.00,,,0.03,Wunderground v.1.15,2013-02-17 04:41:00,
2013-02-16 23:46:00,55.3,47.2,30.11,NW,307,1.0,8.0,74,0.00,,,0.03,Wunderground v.1.15,2013-02-17 04:46:00,
2013-02-16 23:51:00,55.3,47.5,30.11,WSW,255,0.0,6.0,75,0.00,,,0.03,Wunderground v.1.15,2013-02-17 04:51:00,
2013-02-16 23:56:00,55.1,47.3,30.11,West,276,6.0,7.0,75,0.00,,,0.03,Wunderground v.1.15,2013-02-17 04:56:00,